Find Starlink 32025

NORAD ID: 60138 Int'l Des: 2024-120 Owner: SPXS Country: US Constellation: starlink operational
LEOCIRCULAR

当前视图

正在加载3D地球...

About Starlink 32025

Starlink 32025 (NORAD 60138) is a starlink constellation satellite (v2 mini) launched Jun 27, 2024 by SPXS of US. It operates in LEO, CIRCULAR orbit with a mass of 730.00 kg.

即将过境

Passes for default location (London). Set your location on the main map for personalized predictions.

高度历史

Loading altitude history...

两行轨道根数

1 60138U 24120D 26263.04114738 -.00000609 00000-0 -68903-5 0 9992
2 60138 53.1590 133.5376 0001425 75.6250 284.4911 15.34396617126180
Epoch: Sep 20, 2026 • Age: 15 hours

当前状态

高度 463.2 km
远地点 / 近地点 N/A
速度 7.64 km/s
星下点 5.55°N, 69.84°E
发射日期 Jun 27, 2024
运行时间 2.2 years
类型 internet

技术详情

分类 Payload
质量 730.00 kg
干质量 700.00 kg
长度 0.30 m
跨度 29.00 m
形状 ? Box + pan
制造商 SPXS
平台类型 Starlink V2M
阶段状态 In Orbit
所有者/国家 SPXS/US

Most Searched